GEFSMW_850_meantemp_000.txt.gz
Temperature
20 20 20 20 21 22 21 21 21 21 21 21 20 20 20 20 20 19 18 17 17 16 15 14 13 13 12 11 10 10 10 9 9 9 9 9 9 9 10 11 12 11 12
19 19 19 20 19 20 21 22 21 21 21 21 20 19 19 19 20 20 19 19 18 17 16 15 14 13 12 11 10 10 10 9 9 9 9 9 10 10 10 11 11 11 11
18 18 19 20 21 20 19 20 21 21 21 21 19 19 19 20 20 20 21 20 19 18 17 16 15 14 12 12 11 10 10 10 9 9 9 9 10 10 10 10 10 10 10
17 17 18 19 19 19 19 19 20 20 20 19 19 20 20 20 21 20 20 20 19 19 18 17 15 14 13 12 11 11 11 10 10 10 9 9 10 10 10 10 9 9 10
17 17 17 18 19 20 20 20 21 21 21 21 21 20 20 20 20 20 20 20 19 19 18 17 16 15 14 13 12 11 11 11 11 11 10 10 9 9 9 9 9 9 9
17 16 17 19 19 20 20 20 21 21 21 21 21 21 21 21 21 21 20 19 19 19 18 17 16 15 15 14 13 12 11 12 11 11 11 9 9 9 9 9 9 9 9
16 16 18 18 19 19 19 19 19 19 19 19 19 18 18 18 19 19 18 18 19 19 19 18 17 16 16 15 14 12 12 12 12 11 11 10 10 9 9 9 9 9 9
16 16 17 17 17 17 18 18 18 18 19 19 18 18 18 17 16 15 15 16 16 16 17 17 16 16 15 15 14 13 12 12 12 11 11 11 10 10 9 9 9 9 9
15 15 16 16 15 16 17 17 17 17 18 18 18 18 18 18 18 17 17 18 18 18 18 17 17 17 16 15 14 14 13 12 12 12 12 11 10 10 10 10 10 9 9
14 14 14 15 14 15 15 15 16 16 16 17 17 17 17 17 18 18 18 18 18 18 18 17 16 16 16 15 13 13 13 12 12 12 11 11 11 11 10 11 11 10 10
13 12 12 12 12 13 13 13 13 14 14 14 14 15 15 15 16 17 17 17 18 18 18 17 17 16 16 16 15 14 13 13 13 12 12 11 11 11 11 11 11 10 10
13 11 11 11 11 11 11 11 12 12 13 13 13 13 13 13 14 14 15 15 16 16 16 16 16 16 16 16 15 15 13 12 12 13 12 11 11 11 11 11 11 11 11
11 11 11 11 11 10 10 11 11 11 12 12 12 12 12 12 12 13 13 13 14 14 14 15 15 16 16 14 14 15 14 14 13 12 12 12 11 11 11 11 11 11 11
11 11 11 11 11 11 11 10 10 10 11 11 11 11 11 11 12 12 12 12 12 12 13 13 14 14 15 14 14 13 13 15 14 12 12 12 12 12 11 11 11 11 10
11 11 11 11 11 10 10 10 11 11 10 10 10 9 10 10 10 11 11 11 11 11 12 12 13 13 13 14 15 13 12 13 14 12 11 11 12 12 11 11 11 11 10
10 10 10 9 10 9 8 8 8 9 9 9 9 9 9 9 9 9 9 10 10 10 10 11 11 12 13 14 14 13 11 10 12 12 11 10 11 12 11 11 11 11 11
9 9 8 8 7 6 7 7 7 8 7 7 7 8 8 8 8 8 8 7 7 7 7 9 9 10 12 13 13 12 11 10 12 15 12 9 9 11 12 11 11 11 11
8 8 7 6 5 6 6 7 8 7 7 6 6 6 6 6 5 5 5 5 6 6 6 7 8 9 10 12 12 11 10 11 12 12 11 10 10 9 11 11 11 11 10
6 6 5 5 5 5 6 6 6 6 6 6 6 6 5 4 5 5 5 4 4 5 5 6 7 8 8 10 11 10 9 10 12 10 11 12 10 10 11 11 11 11 9
4 5 5 5 5 5 5 4 3 3 2 2 3 3 2 2 3 3 3 3 3 4 4 5 5 6 7 8 9 9 8 7 9 9 9 10 9 9 9 11 11 10 9
3 4 4 3 3 2 2 1 1 1 1 1 2 2 2 2 2 2 2 2 2 2 3 3 4 4 5 6 8 9 8 6 6 7 8 8 8 8 9 9 10 10 9
3 3 1 0 -0 -1 -1 -1 -1 -1 -1 -0 0 0 0 1 1 1 1 1 2 2 2 3 3 3 3 4 6 7 8 7 6 6 7 7 8 8 8 8 9 9 9
0 -0 -0 -1 -1 -2 -2 -2 -1 -1 -2 -1 -1 -1 -1 -1 -0 -0 0 1 1 1 2 1 1 2 2 3 4 5 6 7 6 6 6 7 7 8 8 8 9 9 8
-0 -0 -1 -1 -2 -2 -1 -1 -2 -2 -2 -3 -2 -2 -2 -1 -1 -1 -1 -0 0 0 0 0 0 1 1 1 2 3 4 6 6 7 6 6 7 7 7 6 6 8 7
-1 -1 -2 -3 -3 -2 -2 -3 -3 -3 -3 -3 -3 -3 -3 -2 -2 -2 -2 -2 -1 -1 -1 -1 -1 -1 -0 1 1 2 3 4 4 4 4 5 5 4 4 4 5 6 5
-3 -3 -3 -4 -4 -3 -3 -4 -4 -4 -5 -4 -4 -4 -4 -3 -3 -3 -3 -2 -2 -0 1 1 -0 -1 0 1 1 2 3 4 4 4 4 3 4 4 4 5 4 4 4

GEFSMW_850_meantemp_006.txt.gz
Temperature
20 20 21 21 21 21 21 21 20 20 19 18 17 17 18 19 18 19 19 19 19 19 18 18 17 16 15 15 14 13 12 12 11 10 10 10 10 10 10 10 10 11 11
18 18 18 20 20 20 20 20 20 19 19 18 18 17 17 18 18 18 18 18 18 17 16 16 16 15 14 13 13 12 11 11 11 10 10 10 10 10 10 10 11 12 11
17 17 18 19 19 19 19 19 19 19 18 18 17 17 16 16 16 17 17 17 16 15 15 14 14 13 12 12 12 12 11 11 11 10 10 10 10 10 11 11 11 11 11
17 18 18 18 18 18 19 19 18 18 17 17 17 16 16 15 16 15 15 15 15 15 15 14 13 12 12 11 11 11 11 11 11 11 11 10 11 10 11 11 11 11 11
17 18 18 18 18 18 18 18 17 17 17 17 16 16 15 15 15 14 14 15 15 15 15 15 14 13 12 12 11 11 11 11 11 11 11 10 10 10 10 10 10 10 10
17 17 17 18 18 18 17 17 17 17 16 16 16 15 15 15 14 14 14 14 14 14 14 14 14 13 12 12 12 12 12 11 11 11 11 11 10 10 10 9 9 9 10
16 16 16 17 17 17 16 16 16 16 16 16 16 15 15 14 14 14 13 13 13 13 13 13 13 13 13 12 12 11 12 12 12 11 11 11 10 10 10 10 10 9 10
16 15 14 15 15 15 15 15 15 15 15 15 15 15 14 14 14 14 14 13 13 13 13 13 13 13 12 12 12 11 12 12 12 12 11 11 11 10 10 10 10 9 9
15 14 14 14 14 15 14 14 14 13 13 13 13 13 13 13 13 13 13 13 13 13 13 13 12 12 12 12 12 12 12 12 12 12 11 11 11 11 10 10 10 9 9
15 14 13 13 13 13 13 12 12 12 12 12 12 12 12 11 11 11 11 11 11 11 11 12 12 12 12 12 11 11 11 12 12 12 11 11 11 11 10 10 10 10 9
14 14 13 13 12 12 12 12 12 11 11 11 11 11 11 11 11 11 10 10 10 10 10 10 10 10 10 11 11 11 11 11 11 11 11 11 11 11 11 10 10 10 9
14 13 13 12 12 12 12 11 11 11 11 11 10 10 10 10 10 10 9 9 9 9 10 10 9 9 9 9 10 10 10 10 10 10 10 10 11 11 11 10 10 10 10
13 13 12 12 12 12 11 11 11 10 10 10 9 9 9 9 9 8 8 8 8 8 8 8 8 8 8 9 9 9 9 9 9 9 9 9 10 10 10 10 10 10 10
13 12 12 12 11 11 10 10 9 9 8 8 8 8 8 8 8 8 8 8 7 7 7 7 7 7 7 8 8 8 8 8 8 8 8 9 9 9 9 9 10 10 10
12 12 11 11 10 10 9 8 8 7 7 6 6 6 6 6 6 7 7 7 6 6 6 6 6 6 6 6 6 7 7 7 7 7 7 8 8 8 8 8 9 9 10
12 11 10 9 9 8 7 7 7 6 6 5 5 5 5 5 4 4 4 4 4 4 4 4 5 5 5 5 5 5 5 6 6 6 7 7 7 7 7 8 8 8 9
11 9 9 8 8 7 6 6 6 5 5 4 4 4 3 3 2 2 2 2 2 3 3 3 3 3 4 4 4 4 4 4 5 4 5 5 6 6 6 7 8 8 9
9 8 8 7 7 6 5 5 4 4 3 3 2 2 2 1 1 1 1 1 1 1 2 2 2 2 3 3 3 3 3 3 3 3 3 4 5 5 5 6 7 7 8
7 7 6 5 5 4 3 3 2 1 1 1 1 0 0 0 0 0 0 0 0 1 1 1 2 2 2 2 2 2 2 1 2 2 2 3 4 4 4 5 5 6 7
5 5 4 3 2 2 1 1 0 -0 -0 -0 -1 -1 -1 -1 -1 -1 -1 -1 -1 -0 -0 0 1 1 1 1 1 1 0 0 0 0 1 2 3 3 3 3 4 5 6
4 4 2 1 1 0 -0 -0 -1 -1 -1 -1 -1 -1 -2 -2 -2 -2 -2 -2 -2 -1 -1 -0 0 0 0 -0 0 0 -1 -1 -1 -1 -0 1 2 3 3 3 4 5 6
3 2 1 1 1 0 0 -0 -1 -1 -1 -2 -2 -2 -3 -3 -3 -3 -3 -3 -2 -2 -2 -1 -1 -1 -2 -2 -2 -1 -1 -2 -2 -1 -0 -0 1 2 3 3 4 5 5
2 1 1 1 1 0 -1 -1 -1 -2 -3 -3 -3 -3 -4 -4 -4 -4 -4 -4 -3 -3 -3 -3 -3 -3 -3 -3 -3 -3 -3 -2 -2 -2 -0 0 1 2 3 4 4 4 5
1 1 1 1 0 -1 -2 -2 -2 -3 -4 -4 -4 -4 -4 -4 -4 -5 -5 -4 -4 -4 -4 -4 -4 -4 -4 -4 -4 -4 -4 -3 -3 -2 -1 -0 1 2 3 3 4 4 4
1 0 -0 -1 -1 -2 -2 -2 -3 -4 -4 -4 -4 -4 -5 -5 -5 -5 -5 -5 -5 -5 -5 -5 -5 -5 -5 -4 -4 -4 -5 -5 -4 -3 -2 -1 -0 1 2 2 3 3 3
-0 -1 -1 -2 -2 -2 -3 -3 -4 -5 -5 -5 -5 -5 -5 -6 -6 -6 -6 -6 -6 -6 -6 -6 -5 -5 -5 -5 -5 -5 -5 -5 -4 -3 -3 -2 -1 -1 -0 1 1 2 2

GEFSMW_850_meantemp_012.txt.gz
Temperature
17 19 19 20 20 20 20 19 19 19 19 18 18 18 18 18 18 17 17 16 15 15 14 14 13 13 13 13 13 12 12 12 11 11 11 11 11 11 11 11 11 12 12
18 18 19 19 19 19 19 19 19 19 19 18 18 17 17 17 17 16 15 15 14 14 14 13 13 13 13 13 13 12 12 12 11 11 10 10 11 11 11 11 11 12 12
17 17 18 18 19 19 19 19 18 18 18 18 17 17 16 16 15 15 15 14 14 13 13 13 13 13 13 13 13 13 12 12 12 11 10 10 10 11 11 11 11 11 11
16 16 17 17 17 17 17 17 17 17 17 16 16 16 15 14 14 14 14 13 13 13 13 13 13 12 12 12 13 13 12 12 12 12 11 11 10 10 10 11 11 11 10
15 15 16 16 16 16 16 16 16 16 15 15 15 14 14 13 13 13 13 13 12 12 12 12 12 12 12 12 12 12 12 12 12 12 11 11 11 10 10 10 11 11 11
15 15 15 15 15 15 15 15 15 15 14 14 14 14 13 13 13 13 13 12 12 12 12 11 11 11 11 11 11 11 11 11 11 11 11 11 11 11 10 10 11 11 12
15 15 15 15 15 15 14 14 14 13 13 13 13 13 12 12 12 12 11 11 11 11 11 11 11 11 11 10 10 10 10 11 10 10 10 10 11 11 11 11 11 11 11
15 15 15 14 14 13 13 13 13 12 12 12 12 12 11 11 11 10 10 10 10 10 10 10 10 10 10 10 10 10 10 10 9 9 10 10 10 10 10 10 10 10 11
16 15 14 14 13 12 12 12 12 12 11 11 11 11 10 10 10 9 9 9 9 9 9 9 9 9 9 9 9 9 9 9 9 8 9 9 9 9 9 9 9 9 10
15 14 14 13 12 12 11 11 11 11 10 10 10 10 10 9 9 8 8 8 8 8 7 7 7 7 7 7 7 7 7 7 7 7 7 8 8 8 8 8 8 8 8
15 14 13 12 11 11 10 10 10 10 10 10 9 9 9 9 8 8 7 7 7 7 6 6 6 5 5 5 5 5 5 5 5 5 6 6 6 7 7 7 7 7 7
14 13 12 11 11 10 10 10 10 9 9 9 9 8 8 8 7 7 6 6 6 6 5 5 4 4 4 4 4 4 4 4 4 4 4 4 4 5 5 5 6 6 6
13 12 11 11 10 10 10 9 9 9 8 8 8 7 7 7 6 6 5 5 5 5 4 4 4 3 3 3 3 2 2 2 2 2 3 3 3 3 4 4 4 4 5
12 11 11 10 10 9 9 9 8 8 8 7 7 6 6 5 5 4 4 4 4 4 3 3 3 2 2 2 2 2 2 2 2 2 2 2 2 2 2 2 3 3 3
11 11 10 9 9 8 8 8 7 7 7 6 5 5 4 4 4 4 4 3 3 2 2 2 1 1 1 0 1 1 0 1 1 1 1 1 1 1 1 1 1 1 1
11 10 9 8 8 8 7 7 6 6 5 5 4 4 4 3 3 3 2 2 1 1 1 0 -0 -0 -1 -0 -0 -1 -1 -1 -0 -0 0 0 0 -0 0 1 1 0 -0
10 9 8 7 7 7 6 6 5 4 4 3 3 3 3 2 2 1 1 0 -0 -1 -1 -1 -1 -1 -1 -2 -2 -2 -2 -2 -2 -2 -1 -1 -1 -1 -0 0 0 0 -0
8 7 7 7 6 5 4 4 3 3 3 2 2 2 2 1 1 0 -0 -1 -1 -2 -2 -2 -2 -2 -3 -3 -3 -3 -3 -3 -3 -3 -3 -3 -3 -2 -3 -3 -2 -1 0
7 7 6 5 4 4 3 2 2 2 2 2 1 1 0 -0 -1 -1 -2 -2 -2 -3 -3 -3 -3 -4 -4 -4 -4 -4 -5 -5 -5 -5 -5 -4 -4 -4 -4 -4 -4 -3 -1
6 5 5 4 4 3 2 2 2 1 1 1 0 -0 -1 -2 -2 -2 -3 -3 -3 -3 -4 -4 -4 -5 -5 -5 -5 -5 -6 -5 -5 -5 -5 -5 -5 -5 -5 -5 -4 -3 -2
6 5 4 3 3 2 1 1 1 0 -0 -0 -1 -1 -2 -3 -3 -3 -4 -4 -4 -4 -4 -5 -5 -6 -6 -6 -6 -6 -6 -6 -6 -6 -6 -6 -6 -6 -5 -4 -3 -2 -2
4 4 3 2 1 1 1 0 -0 -1 -1 -1 -2 -2 -3 -3 -4 -4 -4 -4 -5 -5 -6 -6 -7 -7 -7 -7 -7 -7 -6 -6 -6 -6 -7 -7 -6 -6 -5 -4 -3 -3 -2
3 2 1 0 0 -0 -0 -1 -1 -1 -2 -2 -2 -3 -3 -4 -4 -5 -5 -5 -6 -7 -8 -8 -8 -8 -8 -7 -7 -7 -7 -7 -7 -7 -7 -7 -7 -6 -5 -5 -4 -3 -3
1 0 -0 -0 -0 -1 -1 -1 -2 -2 -2 -3 -3 -4 -4 -4 -5 -5 -6 -6 -7 -8 -9 -8 -8 -8 -8 -8 -8 -7 -7 -7 -8 -8 -8 -7 -7 -7 -6 -5 -5 -4 -4
-1 -1 -1 -1 -1 -1 -1 -2 -3 -3 -3 -3 -3 -4 -5 -5 -6 -6 -6 -7 -8 -9 -9 -9 -9 -8 -8 -8 -8 -8 -8 -8 -8 -8 -8 -8 -8 -8 -7 -7 -6 -5 -5
-1 -1 -1 -1 -1 -2 -2 -2 -3 -3 -4 -4 -4 -5 -6 -7 -7 -7 -7 -7 -8 -9 -9 -9 -9 -9 -9 -9 -8 -8 -8 -8 -9 -9 -9 -9 -9 -9 -8 -8 -7 -6 -5

GEFSMW_850_meantemp_018.txt.gz
Temperature
15 16 17 18 18 18 18 19 19 19 19 18 17 16 15 14 14 14 13 13 13 13 13 13 12 12 12 12 12 12 12 12 12 11 12 12 12 12 13 13 13 13 13
14 15 16 17 17 18 18 18 18 18 18 17 16 15 14 13 13 13 13 13 13 13 12 12 12 12 11 11 11 11 11 11 11 10 10 10 10 11 12 12 12 12 12
14 15 15 16 17 17 17 17 17 17 17 16 15 14 13 12 12 12 12 12 12 12 11 11 11 11 11 11 10 10 10 9 10 9 9 10 10 10 11 11 11 12 12
13 14 15 15 16 15 15 16 16 15 15 14 14 13 13 13 12 11 11 11 11 11 11 11 11 11 10 10 10 10 9 9 9 9 9 9 9 9 9 10 10 11 11
13 13 14 14 14 14 14 14 14 14 13 13 13 13 12 12 11 12 12 12 11 11 11 11 10 10 10 9 9 9 9 8 8 8 8 8 8 8 7 8 8 8 9
12 13 13 13 13 13 13 13 14 13 13 13 12 12 12 12 12 12 12 11 11 11 10 10 9 9 8 8 8 8 8 7 7 7 7 6 5 5 5 5 6 6 7
12 12 12 12 12 13 13 13 13 12 12 12 12 12 11 11 11 11 10 10 10 10 9 9 8 8 7 7 7 6 6 6 6 5 5 5 4 4 4 3 4 4 5
12 12 12 12 12 12 12 12 12 12 11 11 11 11 10 10 10 9 9 9 8 8 7 7 7 7 6 6 6 5 5 4 4 4 4 3 3 3 2 2 2 3 4
12 12 12 12 12 12 11 11 11 11 11 10 10 10 9 9 9 8 8 7 7 6 6 6 6 6 6 5 5 5 4 3 3 2 2 2 1 1 1 1 1 1 1
12 12 11 11 11 11 11 11 10 10 10 9 9 9 8 8 8 7 7 6 6 5 5 5 5 5 5 5 4 4 3 2 2 1 1 0 0 0 0 0 0 -0 -0
12 12 11 11 11 10 10 10 10 9 9 8 8 7 7 7 6 6 5 5 5 5 5 5 5 4 4 4 3 3 2 1 0 -1 -1 -1 -1 -1 -1 -1 -1 -1 -1
12 12 11 10 10 9 9 9 8 8 8 7 7 7 6 6 5 5 5 4 4 4 4 4 4 4 3 3 2 1 1 -0 -2 -2 -3 -3 -3 -2 -2 -2 -2 -2 -2
12 11 10 10 9 9 8 8 8 7 7 6 6 6 5 5 4 4 4 4 4 4 4 3 3 3 2 2 1 0 -0 -1 -3 -3 -4 -4 -4 -3 -3 -4 -4 -3 -3
12 11 10 9 8 8 7 7 7 6 6 6 5 4 4 4 3 3 3 3 3 3 3 2 2 2 1 1 0 -1 -1 -2 -3 -4 -4 -4 -4 -5 -5 -5 -4 -5 -5
10 10 9 8 7 7 7 6 6 6 5 4 4 3 3 3 3 3 3 3 2 2 2 1 1 1 0 -1 -2 -3 -3 -4 -4 -4 -4 -4 -5 -5 -5 -5 -5 -5 -5
9 9 8 7 7 6 6 6 5 4 4 3 3 2 2 2 2 2 2 2 2 1 1 0 -0 -1 -1 -2 -3 -4 -5 -5 -5 -5 -5 -5 -6 -6 -6 -6 -6 -6 -6
10 9 8 7 6 6 5 5 4 3 3 2 2 2 2 2 1 1 1 1 1 0 -0 -1 -2 -2 -3 -3 -4 -5 -6 -6 -6 -6 -6 -7 -7 -7 -7 -7 -6 -6 -6
10 8 7 6 6 5 4 4 3 2 2 2 2 1 1 1 1 0 0 -0 -1 -1 -2 -2 -3 -3 -4 -4 -6 -7 -7 -7 -7 -7 -7 -7 -7 -7 -7 -7 -7 -7 -7
9 7 6 5 5 4 3 2 2 2 1 1 1 1 0 0 -0 -0 -1 -2 -2 -3 -3 -3 -4 -4 -4 -5 -7 -8 -8 -8 -7 -7 -7 -7 -7 -7 -7 -7 -7 -7 -7
7 6 5 4 4 3 2 2 1 1 1 1 0 -0 -0 -1 -1 -2 -2 -3 -3 -4 -4 -4 -4 -5 -6 -7 -8 -8 -8 -8 -8 -8 -8 -8 -8 -7 -7 -7 -7 -8 -8
5 5 4 3 2 2 1 1 0 0 0 -0 -0 -1 -1 -1 -2 -3 -3 -4 -4 -4 -4 -4 -5 -6 -8 -8 -9 -9 -8 -8 -8 -8 -8 -8 -8 -8 -8 -8 -9 -9 -8
4 3 3 2 1 0 -0 -0 -0 -0 -0 -0 -1 -1 -2 -2 -3 -4 -4 -4 -5 -5 -5 -6 -7 -8 -9 -9 -9 -9 -9 -8 -8 -8 -8 -8 -8 -8 -9 -9 -9 -9 -9
3 2 1 1 -0 -0 -1 -1 -1 -1 -1 -1 -1 -2 -2 -3 -4 -4 -5 -5 -6 -6 -7 -8 -9 -9 -9 -10 -10 -9 -9 -9 -9 -9 -9 -9 -9 -9 -10 -10 -10 -10 -10
2 1 0 -0 -1 -1 -1 -1 -1 -1 -1 -2 -2 -3 -3 -4 -4 -5 -5 -6 -7 -8 -9 -10 -10 -10 -10 -10 -10 -9 -9 -9 -9 -9 -9 -10 -10 -10 -11 -11 -10 -10 -10
1 0 -0 -1 -0 -1 -1 -1 -2 -2 -2 -3 -3 -4 -4 -4 -5 -5 -6 -7 -8 -10 -10 -10 -10 -10 -10 -10 -9 -9 -9 -9 -9 -9 -10 -11 -11 -11 -11 -11 -11 -11 -11
0 -0 -1 -1 -1 -1 -1 -2 -2 -3 -3 -4 -4 -4 -5 -5 -6 -7 -7 -8 -9 -10 -10 -10 -10 -10 -10 -10 -10 -10 -10 -10 -10 -10 -11 -11 -11 -12 -12 -12 -11 -11 -11

GEFSMW_850_meantemp_024.txt.gz
Temperature
14 15 16 16 17 17 17 17 18 17 17 16 15 14 14 13 13 13 12 12 12 12 12 12 11 11 11 10 10 10 10 9 9 9 9 9 10 11 11 10 10 10 10
13 13 15 15 16 16 17 17 17 16 16 15 15 14 13 12 12 12 12 12 12 11 11 11 11 10 10 10 9 9 8 8 8 7 8 9 10 10 10 9 9 10 10
13 13 14 15 16 16 16 16 16 15 15 14 14 13 12 12 12 11 11 11 11 11 10 10 10 9 9 9 8 7 7 6 6 6 6 7 8 6 7 8 8 8 8
13 12 13 14 15 15 15 15 15 14 14 13 13 12 12 12 11 11 11 10 10 10 10 9 9 8 8 7 7 6 6 5 5 5 5 4 4 5 6 6 7 7 6
12 12 13 14 14 14 14 14 13 13 13 13 12 12 12 11 11 10 10 10 10 9 9 8 8 7 7 6 6 6 6 5 4 4 3 3 4 4 4 5 5 5 5
11 11 12 13 13 13 13 13 13 13 12 12 12 11 11 10 10 10 10 9 9 9 8 8 7 6 6 6 6 5 5 5 4 3 3 2 2 2 3 3 3 4 4
11 10 11 12 12 12 12 12 12 12 11 11 11 11 10 10 10 9 9 9 8 8 7 7 6 6 5 5 5 5 4 4 3 3 2 1 1 1 1 1 1 2 2
11 10 11 11 12 12 12 11 11 11 11 11 10 10 10 9 9 9 8 8 7 6 6 5 5 5 4 4 4 4 3 3 2 1 0 -0 -0 -0 -1 -1 -0 -0 1
10 10 10 10 11 11 11 11 11 10 10 10 9 9 9 8 8 8 7 6 6 5 5 4 4 4 4 3 3 3 2 1 0 -0 -1 -1 -1 -2 -2 -2 -2 -2 -1
10 10 10 10 10 10 10 10 10 9 9 9 8 8 7 7 7 6 6 5 4 4 4 3 3 3 3 2 2 1 1 -0 -1 -1 -2 -2 -2 -2 -3 -3 -3 -3 -3
10 9 9 9 10 10 9 9 9 8 8 8 7 7 6 6 5 5 4 4 3 3 3 3 2 2 1 1 1 -0 -1 -1 -2 -2 -2 -3 -3 -3 -3 -4 -4 -4 -4
10 9 9 9 9 9 8 8 8 7 7 7 6 6 5 5 4 4 3 3 3 2 2 1 1 1 0 -0 -1 -2 -2 -3 -3 -3 -3 -4 -4 -4 -4 -4 -4 -4 -4
9 8 8 8 8 8 7 7 7 7 6 6 5 5 4 4 3 3 3 2 2 1 1 0 0 -0 -1 -1 -2 -3 -3 -3 -4 -4 -4 -5 -5 -5 -5 -5 -5 -5 -5
9 8 8 8 7 7 7 6 6 6 5 5 4 4 3 3 2 2 2 1 1 1 0 -0 -1 -1 -1 -2 -3 -3 -4 -4 -4 -5 -5 -5 -6 -6 -6 -6 -6 -6 -6
8 8 8 7 7 7 6 6 5 5 5 4 3 3 2 2 2 1 1 1 0 -0 -1 -1 -1 -2 -2 -3 -3 -4 -5 -6 -6 -6 -6 -6 -7 -7 -7 -7 -7 -7 -6
8 8 7 7 6 6 6 5 5 4 4 3 2 2 2 1 1 1 0 -0 -0 -1 -1 -2 -3 -3 -4 -4 -4 -5 -6 -7 -6 -6 -6 -7 -7 -7 -7 -7 -7 -7 -7
8 8 7 7 6 6 5 5 4 4 3 2 2 1 1 1 0 -0 -0 -1 -1 -2 -2 -3 -3 -4 -4 -4 -5 -6 -7 -7 -7 -7 -7 -7 -7 -7 -7 -7 -7 -7 -7
9 8 7 6 6 5 4 4 3 3 2 1 1 1 0 0 -0 -1 -1 -2 -2 -3 -4 -4 -4 -5 -5 -5 -6 -8 -8 -8 -7 -8 -8 -8 -7 -8 -8 -8 -7 -7 -7
9 8 7 6 5 4 4 3 2 2 1 1 1 0 -0 -1 -1 -1 -2 -3 -3 -4 -4 -5 -5 -6 -6 -7 -8 -8 -8 -8 -8 -8 -8 -8 -8 -8 -8 -8 -8 -8 -8
8 7 6 5 4 4 3 2 2 1 1 0 -0 -0 -1 -1 -2 -2 -3 -3 -4 -4 -5 -6 -6 -7 -7 -8 -8 -9 -9 -8 -8 -8 -8 -8 -8 -8 -8 -8 -9 -9 -9
7 6 5 4 3 3 2 2 1 1 0 -0 -1 -1 -2 -2 -3 -3 -4 -4 -5 -5 -6 -7 -7 -8 -8 -8 -8 -9 -9 -9 -9 -8 -8 -8 -8 -9 -9 -9 -9 -10 -10
5 5 4 3 2 2 2 1 1 0 -0 -1 -1 -2 -2 -3 -3 -4 -4 -5 -5 -6 -7 -7 -8 -8 -8 -8 -9 -9 -9 -9 -9 -9 -9 -9 -9 -9 -9 -10 -10 -10 -10
5 4 3 2 2 2 1 0 0 -0 -1 -1 -2 -2 -3 -3 -4 -4 -5 -5 -6 -7 -7 -8 -8 -8 -8 -9 -9 -9 -9 -9 -9 -9 -9 -9 -9 -10 -10 -10 -11 -11 -11
4 3 2 2 1 1 0 -0 -0 -1 -1 -2 -2 -3 -3 -4 -4 -5 -5 -6 -7 -8 -8 -8 -8 -9 -9 -9 -9 -9 -9 -9 -9 -9 -9 -9 -10 -10 -11 -11 -11 -11 -11
3 2 1 1 0 -0 -0 -1 -1 -1 -2 -3 -3 -3 -4 -4 -5 -5 -6 -7 -7 -8 -9 -9 -9 -10 -10 -10 -10 -10 -10 -10 -10 -10 -10 -10 -10 -11 -11 -11 -11 -11 -11
2 1 1 0 -0 -1 -1 -1 -2 -2 -3 -3 -4 -4 -4 -5 -6 -6 -7 -8 -8 -9 -9 -9 -10 -10 -10 -10 -10 -10 -10 -10 -10 -10 -11 -11 -11 -11 -12 -12 -12 -12 -12

GEFSMW_850_meantemp_030.txt.gz
Temperature
17 16 15 15 15 15 15 15 15 15 14 14 13 13 13 12 12 12 12 12 12 11 11 11 11 11 10 10 9 9 9 9 8 8 8 8 8 9 9 9 9 9 9
16 15 14 14 14 14 14 14 13 13 13 13 13 12 12 12 12 11 11 11 11 11 11 11 10 10 9 9 8 8 8 7 7 6 5 5 6 8 7 7 7 7 7
15 14 14 13 13 13 13 13 13 13 13 13 12 12 12 11 11 11 11 11 11 10 10 10 9 9 8 8 7 7 6 6 6 5 4 4 4 3 4 5 5 5 5
15 14 13 13 13 13 13 13 13 12 12 12 12 12 12 11 11 11 10 10 10 10 10 9 9 8 7 7 6 6 5 5 5 5 4 3 3 2 2 2 3 3 3
15 13 12 12 12 12 12 12 12 12 12 12 12 12 11 11 10 10 10 10 9 9 9 8 8 7 6 6 6 5 5 4 4 4 3 3 2 2 1 1 1 1 1
14 13 12 12 12 12 12 12 12 12 12 12 11 11 11 10 10 10 9 9 9 8 8 7 7 6 6 5 5 5 4 4 3 3 2 1 0 0 0 -0 -0 -0 -0
13 12 11 11 12 12 12 12 12 12 11 11 11 11 10 10 9 9 9 8 8 8 7 6 6 5 5 4 4 4 4 3 2 2 1 0 -0 -0 -1 -1 -1 -1 -1
12 11 11 11 11 12 11 11 11 11 11 11 10 10 10 9 9 9 8 8 7 7 6 5 5 4 4 4 4 3 3 2 1 1 0 -1 -1 -1 -2 -2 -2 -2 -2
12 11 11 10 11 11 11 11 11 11 10 10 10 9 9 9 8 8 7 7 6 5 5 4 4 4 3 3 3 2 2 1 0 -1 -1 -2 -2 -2 -2 -2 -2 -3 -3
12 11 10 10 10 10 10 10 10 10 10 9 9 8 8 8 7 7 6 6 5 4 4 3 3 3 3 2 2 1 0 -0 -1 -2 -2 -2 -3 -3 -3 -3 -3 -4 -4
12 11 10 10 10 9 9 9 9 9 9 8 8 8 7 7 6 6 5 4 4 3 3 3 3 2 2 1 1 0 -1 -2 -2 -3 -3 -3 -4 -4 -4 -4 -4 -4 -5
12 11 10 10 9 9 9 9 9 8 8 8 7 7 6 6 5 5 4 3 3 3 2 2 2 2 1 0 -0 -1 -2 -3 -3 -3 -4 -4 -5 -5 -5 -5 -5 -5 -6
12 11 10 9 9 8 8 8 8 8 7 7 6 6 6 5 4 4 3 3 2 2 2 2 1 1 0 -1 -2 -3 -4 -4 -4 -5 -5 -6 -6 -6 -6 -6 -6 -6 -6
12 11 10 9 8 8 8 7 7 7 6 6 6 5 5 4 4 3 2 2 2 1 1 1 0 -0 -1 -2 -3 -4 -4 -5 -5 -5 -6 -6 -7 -6 -6 -6 -6 -7 -7
12 11 9 9 8 8 7 7 6 6 6 5 5 5 4 3 3 2 2 1 1 1 1 0 -1 -2 -3 -3 -4 -5 -5 -6 -6 -6 -7 -7 -7 -7 -7 -7 -7 -7 -7
12 11 9 9 8 7 6 6 6 5 5 5 4 4 3 2 2 1 1 1 1 0 -0 -1 -2 -3 -3 -4 -5 -5 -6 -6 -7 -7 -7 -8 -8 -7 -7 -7 -7 -7 -7
12 10 9 8 7 7 6 5 5 5 5 4 4 3 2 2 1 1 1 0 -0 -1 -1 -2 -3 -3 -4 -5 -5 -6 -6 -7 -7 -8 -8 -8 -8 -8 -8 -8 -8 -8 -8
11 10 9 8 7 6 5 5 4 4 4 3 3 2 1 1 1 0 0 -0 -1 -1 -2 -2 -3 -4 -5 -5 -6 -6 -7 -7 -8 -8 -8 -8 -8 -8 -8 -8 -8 -8 -8
11 9 8 7 6 5 5 4 4 4 3 3 2 1 1 1 0 -0 -0 -1 -1 -2 -2 -3 -4 -5 -5 -6 -6 -7 -7 -7 -8 -8 -9 -9 -9 -9 -8 -8 -8 -8 -9
9 8 7 6 5 4 4 4 4 3 2 2 1 1 0 0 -0 -1 -1 -1 -2 -2 -3 -4 -5 -6 -6 -7 -7 -7 -7 -8 -8 -9 -9 -9 -9 -9 -8 -8 -9 -9 -9
8 7 6 5 4 4 4 3 3 2 2 1 1 0 -0 -0 -1 -1 -1 -2 -3 -3 -4 -5 -5 -6 -7 -7 -8 -8 -8 -8 -9 -9 -9 -9 -9 -9 -9 -9 -9 -10 -9
6 6 5 4 4 3 3 3 2 1 1 1 0 0 -0 -1 -1 -2 -2 -3 -4 -4 -5 -6 -6 -7 -8 -8 -9 -9 -9 -9 -9 -9 -10 -10 -9 -9 -9 -10 -10 -10 -10
5 5 5 4 3 3 2 2 1 1 1 0 0 -0 -1 -1 -2 -2 -3 -4 -4 -5 -6 -6 -7 -7 -8 -9 -9 -9 -9 -9 -9 -10 -10 -10 -10 -10 -10 -11 -11 -11 -11
5 4 4 4 3 2 2 1 1 0 0 0 -0 -1 -1 -2 -2 -3 -4 -5 -5 -6 -7 -7 -8 -8 -9 -9 -9 -9 -9 -10 -10 -10 -10 -10 -10 -11 -11 -11 -12 -12 -12
4 4 3 3 2 2 1 1 0 0 0 -0 -1 -1 -2 -2 -3 -4 -4 -5 -6 -7 -8 -8 -8 -9 -9 -9 -9 -9 -10 -10 -10 -10 -10 -11 -11 -12 -12 -12 -12 -12 -12
4 3 2 2 1 1 1 0 0 -0 -0 -1 -1 -2 -2 -3 -4 -4 -5 -5 -6 -7 -8 -8 -9 -9 -9 -9 -9 -10 -10 -10 -10 -11 -12 -12 -12 -12 -12 -12 -12 -12 -12

GEFSMW_850_meantemp_036.txt.gz
Temperature
19 18 18 18 18 17 17 17 16 16 16 15 15 14 14 13 13 13 12 12 12 11 11 11 11 10 10 9 9 8 8 7 7 7 7 8 8 8 7 7 7 7 7
17 17 17 17 17 16 16 16 16 15 15 15 14 14 14 13 13 12 12 12 11 11 11 10 10 9 9 8 7 7 7 6 5 5 5 5 6 6 6 5 5 5 5
17 16 16 16 15 15 15 15 15 14 14 14 14 13 13 12 12 12 11 11 11 10 10 10 9 8 8 7 6 6 6 5 5 4 3 2 1 1 3 3 4 4 4
16 16 15 14 14 14 14 14 14 13 13 13 13 13 13 12 12 11 11 11 10 10 9 9 8 7 6 6 5 5 4 4 4 3 2 1 0 -0 -1 1 2 3 3
16 15 14 14 13 13 13 13 13 13 13 13 13 13 12 12 11 11 10 10 9 9 8 8 7 6 5 5 4 4 4 3 3 2 2 1 0 -1 -2 -2 -2 -0 1
14 13 13 12 12 12 12 12 12 12 12 12 12 12 12 12 11 10 10 9 9 8 8 7 6 5 5 4 4 3 3 3 2 2 1 0 -1 -2 -2 -3 -3 -3 -3
12 12 12 12 11 11 12 12 12 12 11 11 11 11 11 11 10 10 9 9 8 8 7 6 5 4 4 3 3 3 2 2 2 1 0 -1 -1 -2 -3 -4 -4 -5 -4
11 11 11 11 11 11 11 11 11 11 11 11 11 11 10 10 9 9 8 8 7 7 6 5 4 4 3 3 2 2 2 1 1 0 -1 -1 -2 -3 -3 -4 -5 -6 -5
9 10 11 11 11 11 11 11 11 11 11 11 11 10 9 9 9 8 8 7 7 6 5 4 4 3 3 2 2 1 1 1 0 -1 -1 -2 -3 -3 -3 -4 -5 -7 -7
9 10 10 10 10 10 11 11 11 11 11 10 10 9 9 8 8 7 7 7 6 5 4 4 3 3 2 2 1 1 0 -0 -1 -2 -3 -3 -4 -4 -4 -4 -5 -6 -7
8 9 9 10 10 10 10 10 11 11 10 10 9 9 8 8 7 7 6 6 5 4 3 3 2 2 1 1 0 -0 -1 -1 -2 -3 -4 -4 -5 -5 -5 -5 -6 -7 -7
8 9 9 9 9 10 10 10 10 10 10 9 8 8 7 7 6 6 6 5 4 3 3 2 2 1 1 0 -1 -1 -2 -3 -3 -4 -5 -5 -5 -6 -6 -6 -7 -8 -8
8 9 9 9 9 9 9 10 9 9 9 8 8 7 6 6 6 5 4 4 3 2 2 1 1 0 -0 -1 -1 -2 -3 -3 -4 -5 -5 -6 -6 -6 -7 -8 -8 -8 -8
8 9 9 9 9 9 9 9 9 8 8 7 7 6 6 5 5 4 3 3 2 2 1 1 0 -1 -1 -1 -2 -3 -4 -4 -5 -6 -6 -6 -7 -7 -8 -8 -8 -8 -8
8 9 9 9 9 8 8 8 8 7 7 6 6 5 5 5 4 3 2 2 2 1 0 -0 -1 -1 -1 -2 -3 -4 -5 -5 -6 -6 -7 -7 -8 -8 -8 -8 -8 -9 -8
8 8 9 9 9 8 8 7 7 6 6 5 5 5 4 4 3 2 2 1 1 0 -0 -1 -1 -2 -2 -3 -4 -5 -5 -6 -6 -7 -7 -8 -8 -9 -9 -9 -9 -8 -8
9 9 10 10 9 8 8 7 6 6 5 5 5 4 3 3 2 2 1 1 0 -0 -1 -1 -2 -2 -3 -3 -4 -5 -6 -6 -7 -7 -8 -8 -9 -9 -9 -9 -9 -9 -9
9 9 9 9 9 8 7 7 6 5 5 4 4 3 2 2 1 1 0 -0 -0 -1 -1 -2 -3 -3 -4 -4 -5 -6 -7 -7 -8 -8 -9 -9 -9 -9 -9 -9 -9 -9 -9
10 10 9 9 9 8 7 6 5 5 4 4 3 2 2 1 1 0 -0 -1 -1 -1 -2 -3 -3 -4 -4 -5 -6 -7 -7 -8 -8 -9 -9 -9 -10 -10 -9 -9 -9 -9 -10
10 9 9 9 8 7 6 5 5 4 4 3 2 2 1 1 0 -0 -1 -1 -2 -2 -3 -3 -3 -4 -5 -6 -7 -8 -8 -9 -9 -9 -9 -10 -10 -9 -9 -9 -10 -10 -10
10 10 9 8 8 7 6 5 4 4 3 2 1 1 0 -0 -0 -1 -1 -2 -2 -2 -3 -3 -4 -5 -6 -7 -8 -8 -9 -9 -9 -9 -10 -10 -10 -9 -9 -10 -10 -11 -10
9 9 8 7 6 6 5 4 4 3 2 1 1 0 -0 -1 -1 -1 -2 -2 -3 -3 -3 -4 -4 -5 -6 -7 -8 -9 -9 -9 -9 -10 -10 -10 -10 -10 -10 -11 -11 -11 -11
8 8 8 6 5 4 4 4 3 2 1 1 0 -0 -1 -1 -2 -2 -2 -2 -3 -3 -4 -5 -6 -7 -7 -8 -9 -9 -9 -10 -10 -10 -10 -10 -11 -11 -10 -11 -11 -11 -11
7 7 6 5 4 3 3 2 2 1 1 0 -0 -1 -1 -2 -2 -3 -3 -3 -3 -4 -5 -7 -7 -8 -8 -9 -9 -10 -10 -10 -10 -10 -10 -10 -10 -10 -11 -11 -11 -11 -12
6 6 5 4 3 2 2 1 1 1 0 -0 -1 -1 -2 -2 -2 -3 -3 -4 -4 -6 -7 -8 -9 -9 -9 -9 -10 -10 -10 -10 -10 -11 -11 -10 -11 -11 -11 -11 -11 -11 -11
5 4 4 3 3 2 1 1 0 -0 -0 -1 -1 -2 -2 -3 -3 -3 -3 -4 -5 -6 -7 -8 -8 -9 -9 -10 -10 -10 -10 -10 -11 -11 -11 -12 -12 -12 -12 -12 -12 -11 -11

GEFSMW_850_meantemp_042.txt.gz
Temperature
17 18 18 19 19 19 19 19 19 18 17 16 15 15 14 14 13 13 13 12 12 11 11 11 11 11 10 10 9 9 8 8 8 8 8 8 8 8 7 7 7 7 7
16 17 17 18 18 18 18 18 18 17 17 16 15 15 14 13 13 13 12 12 11 11 11 11 11 10 10 9 8 8 7 7 6 6 6 6 7 6 6 6 6 5 5
15 16 17 17 17 17 18 18 17 17 16 15 14 14 13 13 12 12 12 11 11 11 11 10 10 10 9 8 7 7 6 5 5 4 4 3 2 3 4 4 4 4 4
15 16 16 17 17 17 17 17 16 16 15 14 14 14 13 13 12 12 11 11 10 10 10 10 9 9 8 7 6 6 5 5 4 3 3 2 0 -0 -0 2 3 3 3
15 16 17 17 17 16 16 16 15 15 14 13 13 13 13 13 12 11 11 11 10 10 10 9 9 8 7 6 5 5 4 4 3 3 2 1 0 -1 -3 -3 -0 1 1
15 16 16 16 16 15 15 15 14 14 13 13 12 13 13 12 12 11 11 10 10 9 9 8 8 7 6 5 5 4 4 3 3 2 1 0 -1 -2 -4 -4 -4 -3 -2
15 15 15 15 15 15 14 14 13 13 12 12 12 12 12 12 11 11 10 10 9 9 8 7 7 6 5 4 4 3 3 3 2 1 0 -1 -2 -3 -3 -4 -5 -5 -4
14 14 15 15 15 14 14 13 13 12 12 12 12 11 11 11 10 10 9 9 8 8 7 6 6 5 4 4 3 3 2 2 1 1 -0 -1 -2 -3 -4 -5 -6 -7 -6
12 13 14 14 14 14 13 13 12 12 11 11 11 11 10 10 10 9 9 8 8 7 6 6 5 4 4 3 3 2 2 1 1 0 -1 -1 -3 -4 -4 -5 -6 -7 -8
10 11 12 13 13 13 12 12 11 11 11 10 10 10 10 9 9 9 8 8 7 6 5 5 4 3 3 2 2 2 1 1 0 -0 -1 -2 -3 -4 -5 -6 -6 -7 -8
9 9 9 11 11 11 11 11 11 11 10 10 10 9 9 9 8 8 7 7 6 5 5 4 3 3 2 2 1 1 1 0 -0 -1 -2 -3 -4 -5 -6 -6 -7 -7 -8
8 7 7 9 10 10 10 10 10 10 10 9 9 9 9 8 8 7 7 6 5 5 4 3 3 2 2 1 1 1 0 -0 -1 -2 -3 -4 -5 -6 -6 -7 -7 -8 -8
6 6 7 8 9 10 10 10 10 9 9 9 9 8 8 7 7 6 6 5 5 4 3 2 2 2 1 1 0 -0 -0 -1 -2 -3 -4 -5 -6 -6 -7 -7 -8 -9 -9
5 5 7 8 9 9 9 9 9 9 9 8 8 8 7 7 6 6 5 4 4 3 2 2 2 1 1 0 -0 -1 -1 -2 -3 -4 -5 -6 -6 -7 -8 -8 -9 -9 -9
5 5 7 8 9 9 9 9 8 8 8 8 7 7 6 6 6 5 4 3 3 2 2 1 1 1 0 -0 -1 -2 -3 -3 -4 -5 -6 -6 -7 -8 -9 -9 -9 -9 -9
5 5 7 8 9 9 9 8 8 8 7 7 7 6 6 5 5 4 3 3 2 2 1 1 0 0 -0 -1 -2 -3 -4 -5 -5 -6 -6 -7 -7 -8 -9 -9 -9 -9 -9
5 6 7 9 9 9 8 8 8 7 7 6 6 6 5 5 4 3 2 2 1 1 1 0 -0 -1 -1 -2 -2 -3 -5 -6 -6 -7 -7 -8 -8 -8 -9 -9 -9 -9 -9
6 7 8 8 8 8 8 8 7 7 6 6 5 5 4 4 3 2 2 1 1 1 0 -0 -1 -1 -2 -2 -3 -4 -6 -6 -7 -7 -8 -8 -8 -9 -9 -9 -9 -9 -9
8 8 9 9 9 8 8 7 6 6 5 5 5 4 4 3 2 2 1 1 0 0 -0 -1 -1 -2 -2 -3 -4 -5 -6 -7 -7 -8 -8 -9 -9 -10 -9 -9 -9 -10 -9
8 8 8 9 8 8 7 7 6 5 5 5 4 3 3 2 1 1 1 0 -0 -1 -1 -1 -2 -3 -3 -4 -5 -6 -8 -8 -8 -8 -9 -9 -10 -10 -9 -9 -10 -10 -10
9 9 9 8 8 8 7 6 6 5 4 4 3 2 2 1 1 0 0 -0 -1 -1 -2 -2 -2 -3 -4 -5 -6 -7 -8 -9 -9 -9 -9 -9 -10 -10 -10 -10 -10 -10 -10
8 8 8 8 7 7 7 6 5 4 4 3 2 2 1 1 0 -0 -0 -1 -1 -2 -2 -3 -3 -4 -5 -6 -7 -8 -9 -9 -9 -10 -10 -10 -10 -10 -10 -10 -10 -10 -11
8 8 8 7 6 6 6 6 5 4 3 2 2 1 1 0 -0 -1 -1 -1 -2 -3 -3 -4 -4 -5 -6 -6 -7 -8 -9 -9 -10 -10 -10 -10 -10 -10 -9 -9 -10 -10 -10
7 7 7 6 5 5 5 5 4 3 2 2 1 0 0 -0 -1 -1 -2 -2 -3 -3 -4 -5 -6 -7 -7 -7 -8 -9 -10 -10 -10 -10 -10 -10 -9 -9 -9 -9 -9 -9 -10
6 6 6 6 5 4 4 3 3 2 2 1 0 -0 -1 -1 -1 -2 -2 -3 -4 -5 -6 -7 -8 -8 -8 -9 -10 -10 -10 -10 -10 -11 -10 -9 -9 -9 -9 -9 -9 -9 -9
6 6 6 5 4 3 3 2 2 1 1 0 -0 -1 -1 -2 -2 -2 -3 -4 -4 -5 -6 -7 -8 -8 -8 -9 -9 -10 -10 -10 -10 -10 -10 -10 -10 -10 -10 -10 -9 -9 -9

GEFSMW_850_meantemp_048.txt.gz
Temperature
15 16 16 16 16 17 18 18 18 18 18 17 17 16 14 14 13 13 13 13 13 12 12 12 11 11 11 11 11 10 10 9 9 9 8 7 8 6 6 6 5 5 6
15 15 15 15 16 16 17 18 18 18 18 18 17 16 15 14 13 13 13 12 12 12 12 11 11 11 10 10 10 10 9 9 8 7 6 6 6 5 6 6 5 5 5
15 16 16 15 16 16 17 18 18 18 18 17 16 16 15 13 13 12 12 12 11 11 11 11 10 10 10 10 10 9 8 8 7 6 5 5 6 4 4 4 4 3 4
15 15 15 15 15 16 16 17 17 17 17 17 17 16 15 13 12 12 12 11 11 11 10 10 10 10 10 9 9 8 7 7 6 5 5 4 3 2 2 2 2 1 2
15 14 15 15 15 15 16 16 17 16 16 16 16 15 13 13 12 12 11 11 10 10 10 10 10 9 9 9 8 7 6 6 5 4 4 2 1 0 -0 1 1 0 -0
14 14 14 14 14 14 15 16 16 16 16 15 14 13 13 13 12 11 11 10 10 9 9 9 9 9 8 8 7 6 6 5 4 4 3 2 0 -0 -1 -1 -1 -1 -1
14 14 14 13 13 13 14 15 15 15 15 14 13 13 12 12 12 11 11 10 9 9 9 9 9 8 7 7 6 5 5 4 4 3 2 1 1 -0 -1 -2 -3 -3 -2
14 14 13 13 12 13 14 14 15 15 14 13 12 12 12 11 11 11 10 10 9 9 9 8 8 7 7 6 5 5 4 3 3 2 2 1 0 -0 -2 -3 -4 -4 -3
13 13 13 12 12 12 13 14 14 14 13 12 12 11 11 11 11 10 9 9 9 8 8 8 7 6 6 5 4 4 3 3 2 1 1 0 -0 -1 -2 -3 -4 -5 -4
12 12 12 11 10 10 11 11 12 12 12 12 11 11 11 10 10 9 9 8 8 8 7 7 6 6 5 4 4 3 2 2 1 1 0 -1 -1 -2 -3 -4 -5 -5 -6
11 11 11 10 9 9 8 8 9 10 11 11 11 10 10 9 9 8 8 8 8 7 7 6 5 5 4 3 3 2 2 1 1 -0 -1 -1 -2 -3 -4 -5 -5 -6 -6
10 10 10 9 8 7 7 7 8 9 10 11 10 10 9 8 8 8 8 7 7 7 6 5 4 4 3 3 2 2 1 1 0 -1 -1 -2 -3 -4 -5 -6 -6 -7 -7
9 9 8 7 6 6 6 6 8 9 10 10 9 9 8 8 8 7 7 7 6 6 5 4 4 3 2 2 1 1 0 0 -1 -1 -2 -3 -4 -5 -6 -6 -7 -7 -8
7 7 6 6 5 5 5 6 8 9 9 9 9 8 8 7 7 7 7 6 6 5 4 3 3 2 2 1 1 0 -0 -1 -1 -2 -3 -4 -5 -6 -7 -7 -8 -8 -8
6 5 5 4 4 4 5 7 8 8 9 8 8 8 7 7 7 6 6 5 5 4 3 3 2 2 1 0 -0 -1 -1 -2 -2 -3 -4 -5 -5 -6 -7 -8 -8 -8 -8
5 4 4 3 3 4 5 7 8 8 8 8 7 7 7 7 6 6 5 4 4 3 2 2 1 1 0 -0 -1 -1 -2 -2 -3 -4 -5 -6 -6 -7 -8 -8 -8 -9 -9
4 3 3 3 3 5 6 7 7 7 7 7 7 7 6 6 5 5 4 3 3 2 2 1 1 0 -0 -1 -1 -2 -2 -3 -4 -4 -5 -6 -7 -8 -8 -9 -9 -9 -8
4 3 3 3 3 4 6 7 7 7 7 7 7 6 6 5 4 4 3 2 2 1 1 0 0 -0 -1 -1 -2 -2 -3 -4 -4 -5 -6 -7 -8 -8 -9 -9 -9 -9 -9
4 4 4 4 4 5 6 7 6 6 6 6 6 6 5 4 4 3 2 2 1 1 0 -0 -0 -1 -1 -2 -2 -3 -4 -5 -6 -6 -7 -8 -9 -9 -9 -9 -9 -9 -9
5 4 4 5 5 6 6 7 6 6 6 6 5 5 4 3 2 2 1 1 0 -0 -0 -1 -1 -2 -2 -3 -3 -4 -5 -7 -7 -8 -8 -8 -9 -9 -9 -9 -9 -9 -9
5 5 5 5 6 6 6 6 6 6 6 5 4 4 3 2 2 1 0 0 -0 -1 -1 -1 -2 -2 -3 -3 -4 -5 -6 -8 -8 -8 -9 -9 -9 -9 -9 -9 -9 -10 -10
5 5 6 6 6 6 6 6 6 5 5 4 3 3 2 1 1 0 -0 -1 -1 -1 -2 -2 -2 -3 -3 -4 -5 -5 -7 -8 -9 -9 -9 -9 -9 -9 -9 -9 -9 -9 -9
5 5 6 6 5 5 6 6 5 4 4 3 2 2 1 0 -0 -0 -1 -1 -1 -2 -2 -3 -3 -3 -4 -5 -5 -6 -8 -8 -9 -9 -9 -9 -9 -9 -8 -8 -8 -9 -9
4 4 5 5 4 4 5 5 5 4 3 2 2 1 0 -0 -1 -1 -1 -2 -2 -3 -3 -4 -4 -5 -5 -6 -7 -8 -9 -9 -9 -9 -9 -9 -9 -8 -8 -8 -8 -9 -9
4 4 4 4 4 4 4 4 4 3 2 2 1 0 -0 -1 -1 -1 -2 -2 -3 -3 -4 -5 -6 -6 -7 -7 -8 -9 -9 -10 -10 -10 -10 -9 -9 -9 -9 -9 -9 -9 -9
3 3 3 4 4 3 3 3 2 2 2 1 0 -0 -1 -1 -2 -2 -2 -3 -3 -4 -5 -6 -6 -7 -7 -8 -8 -9 -9 -9 -9 -10 -10 -10 -9 -9 -9 -9 -8 -8 -8

GEFSMW_850_meantemp_054.txt.gz
Temperature
18 19 19 19 19 20 19 19 18 18 17 16 16 15 15 14 14 14 13 13 13 13 13 13 13 13 12 12 12 12 12 11 11 11 10 9 9 8 8 7 7 6 6
18 18 18 19 19 19 19 19 18 18 17 17 16 16 15 14 14 14 13 13 13 13 13 13 13 12 12 12 11 11 11 11 10 10 10 9 8 7 7 7 6 6 6
18 18 18 18 18 18 18 18 18 18 17 16 16 15 14 14 13 13 13 13 13 13 13 12 12 12 11 11 11 11 11 10 10 9 9 8 7 7 7 6 5 5 4
17 17 17 18 18 18 18 18 18 17 17 16 15 15 15 15 14 14 13 13 12 12 12 12 12 11 11 11 10 10 10 10 9 9 8 7 6 6 6 5 5 4 3
17 17 17 17 17 17 17 17 17 17 16 16 15 15 15 15 15 13 12 12 12 12 12 11 11 11 10 10 10 10 9 9 8 8 7 6 5 4 3 4 4 4 3
17 17 16 16 16 16 16 17 16 16 16 15 15 15 14 15 15 14 12 12 12 11 11 11 10 10 10 10 10 9 9 8 7 7 6 5 5 3 2 2 2 2 3
16 16 16 16 16 16 16 16 16 16 15 15 14 13 13 14 15 15 13 12 11 11 11 10 10 9 9 9 9 9 8 7 7 6 5 5 4 3 2 1 1 0 1
15 15 15 15 15 15 15 15 15 15 14 14 13 12 12 13 13 13 13 12 11 11 10 9 9 9 9 8 8 8 7 6 6 5 5 4 3 2 2 0 -1 -2 -2
14 14 14 14 14 14 14 14 14 14 13 13 12 11 11 11 12 12 12 11 10 10 9 9 8 8 8 8 7 7 6 6 5 4 4 3 2 2 1 -0 -1 -3 -4
13 13 13 13 13 13 13 13 13 13 12 12 11 11 10 11 11 11 11 10 10 9 8 8 8 8 7 7 6 6 5 5 4 3 3 2 2 1 0 -1 -2 -3 -4
12 12 12 12 12 12 12 12 12 12 11 10 10 10 10 10 10 10 10 10 9 8 8 8 7 7 7 6 6 5 4 4 3 2 2 1 0 -0 -1 -2 -3 -4 -5
11 11 11 11 11 11 12 12 11 10 10 10 9 9 9 9 9 9 9 8 8 7 7 7 7 6 6 5 5 4 3 3 2 2 1 0 -0 -1 -2 -3 -4 -5 -5
9 9 10 10 10 11 11 10 10 9 9 8 8 8 8 8 9 8 8 7 7 7 7 6 6 5 5 4 4 3 2 2 1 1 0 -0 -1 -2 -3 -4 -5 -5 -6
8 8 8 9 9 9 9 9 8 8 8 7 7 7 7 8 8 7 7 7 7 6 6 5 5 5 4 3 3 2 2 1 1 0 -0 -1 -2 -3 -4 -5 -6 -6 -7
6 7 7 7 7 7 7 7 7 7 6 6 6 6 6 6 7 6 6 6 6 5 5 5 4 4 3 3 2 2 1 1 0 -0 -1 -2 -3 -4 -5 -6 -7 -7 -8
5 6 6 6 6 6 6 6 5 5 5 4 4 5 5 6 6 6 6 6 5 5 4 4 3 3 2 2 1 1 1 0 -0 -1 -2 -3 -4 -5 -6 -7 -7 -8 -8
5 5 5 5 5 5 5 4 4 3 3 3 3 4 5 5 5 5 5 5 4 4 4 3 3 2 2 1 1 0 -0 -1 -1 -2 -3 -4 -5 -6 -7 -7 -8 -8 -8
4 4 4 4 4 4 3 3 2 2 2 2 3 4 5 5 5 5 4 4 4 3 3 2 2 1 1 0 -0 -1 -1 -2 -2 -3 -4 -5 -6 -7 -7 -8 -8 -8 -8
4 4 3 3 3 3 2 2 1 1 1 2 3 4 4 5 4 4 4 3 3 2 2 1 1 0 0 -0 -1 -2 -2 -3 -3 -4 -5 -6 -7 -7 -8 -8 -8 -8 -8
3 3 3 2 2 1 1 1 0 1 1 2 3 4 4 4 4 3 3 2 2 1 1 1 0 -0 -1 -2 -2 -3 -3 -4 -4 -5 -5 -6 -7 -8 -8 -9 -9 -9 -8
3 2 2 1 1 0 0 0 0 1 2 2 3 3 3 3 3 3 2 2 1 1 0 -0 -1 -1 -2 -3 -3 -4 -5 -6 -7 -7 -7 -7 -8 -8 -8 -9 -9 -9 -9
2 1 1 1 0 0 0 0 1 1 2 3 3 3 3 3 2 2 1 1 0 0 -0 -1 -2 -2 -3 -4 -5 -6 -7 -7 -8 -8 -7 -8 -8 -9 -9 -8 -9 -9 -9
1 1 1 0 -0 0 1 2 2 2 3 3 3 3 2 2 1 1 1 0 -0 -1 -1 -2 -2 -3 -4 -5 -6 -6 -6 -7 -8 -8 -8 -8 -8 -8 -8 -8 -9 -9 -9
1 1 1 1 0 1 1 2 3 3 3 3 2 2 2 1 1 0 -0 -0 -1 -2 -2 -3 -3 -4 -4 -5 -6 -6 -7 -7 -7 -8 -8 -8 -8 -8 -8 -8 -8 -8 -8
1 1 1 1 1 2 2 2 3 3 3 3 2 1 1 0 -0 -1 -1 -1 -2 -2 -3 -4 -4 -5 -5 -6 -7 -8 -8 -8 -9 -9 -9 -8 -8 -8 -8 -8 -8 -8 -8
1 1 1 2 2 2 2 2 2 2 3 2 1 1 0 -0 -1 -1 -2 -2 -3 -3 -4 -5 -5 -6 -7 -7 -8 -8 -8 -8 -9 -9 -9 -9 -9 -9 -8 -8 -8 -8 -8

GEFSMW_850_meantemp_060.txt.gz
Temperature
17 18 18 18 18 18 18 18 18 18 18 17 16 16 16 15 15 15 14 14 14 13 13 13 13 12 12 12 12 12 12 12 12 12 11 11 10 10 9 9 8 7 7
17 17 17 17 18 18 18 18 18 18 18 17 17 17 17 16 16 15 15 14 14 13 13 13 13 12 12 12 12 12 12 12 12 11 11 11 10 9 9 8 7 7 6
16 16 17 17 17 17 17 18 18 18 18 18 17 17 16 16 15 15 15 14 14 13 13 13 13 13 12 12 12 12 12 11 11 11 11 11 10 9 8 8 7 6 6
15 16 16 16 17 17 17 17 17 17 17 17 17 17 16 16 16 16 15 15 14 14 13 13 13 12 12 12 12 12 11 11 11 11 10 10 9 9 8 7 6 6 5
15 15 16 16 16 16 17 17 17 17 17 17 17 17 17 17 16 16 15 15 14 14 13 13 12 12 12 12 11 11 11 11 11 10 10 9 8 8 7 7 6 5 5
15 15 15 15 16 16 16 16 16 16 16 16 16 16 16 16 16 16 15 15 14 14 13 12 12 12 11 11 11 11 10 10 10 10 9 8 8 7 6 5 5 5 5
15 15 15 15 15 15 15 16 16 16 16 16 16 16 16 16 16 16 15 15 14 14 13 12 11 11 11 11 10 10 10 9 9 9 8 7 7 6 5 4 3 3 3
14 14 14 14 14 14 14 15 15 15 15 15 15 15 15 15 15 15 15 15 14 14 13 12 11 11 10 10 9 9 9 8 8 8 7 6 6 5 4 3 2 1 1
13 13 13 13 13 13 13 14 14 14 14 14 14 14 15 15 15 15 15 14 14 13 12 11 10 10 9 9 9 8 8 8 7 7 6 5 5 4 3 2 1 -1 -2
12 12 12 12 12 12 12 12 13 13 13 14 14 14 14 14 14 14 14 13 13 12 11 10 10 9 8 8 8 7 7 7 6 6 5 4 4 3 2 1 0 -1 -3
11 10 10 10 11 11 11 12 12 12 12 13 13 13 13 13 13 13 13 12 11 11 10 9 9 8 7 7 6 6 6 6 5 5 4 3 3 2 1 0 -1 -2 -3
10 9 9 9 9 10 10 10 11 11 11 12 12 12 12 12 12 12 11 11 10 9 8 8 7 7 6 6 6 5 5 4 4 3 3 2 2 1 0 -0 -1 -2 -3
9 8 8 8 8 8 9 9 10 10 10 11 11 11 11 11 11 11 10 9 9 8 7 6 6 6 5 5 5 4 4 3 3 2 2 1 1 0 -0 -1 -2 -3 -4
8 7 7 7 7 7 8 8 8 9 9 10 10 10 10 10 9 9 8 8 7 6 5 5 5 5 4 4 4 3 3 2 2 1 1 0 -0 -1 -1 -2 -3 -4 -5
6 6 6 6 6 6 6 7 7 7 8 8 8 8 8 8 7 7 6 6 5 5 4 4 4 4 3 3 3 2 2 1 1 1 0 -0 -1 -2 -3 -4 -5 -6 -7
5 5 5 5 5 5 5 5 6 6 6 6 7 7 6 6 5 5 4 4 3 3 3 3 3 3 2 2 2 1 1 1 0 -0 -1 -1 -2 -3 -4 -5 -6 -7 -7
5 4 4 4 5 5 5 5 5 4 5 5 4 4 4 4 3 3 3 2 2 2 2 2 2 2 1 1 1 1 0 -0 -1 -1 -1 -2 -3 -4 -4 -5 -6 -7 -7
4 4 4 4 4 4 4 4 3 3 3 3 2 2 2 2 2 1 1 2 2 2 2 1 1 1 1 0 0 -0 -1 -1 -1 -2 -3 -3 -4 -4 -5 -7 -7 -7 -7
4 4 3 3 3 3 3 3 2 2 2 2 1 1 1 1 1 1 1 1 1 1 1 1 0 0 -0 -0 -1 -1 -1 -2 -2 -3 -4 -5 -5 -5 -7 -8 -8 -8 -7
3 3 3 3 3 2 2 2 2 1 1 1 1 0 1 1 1 1 1 1 1 0 0 -0 -0 -1 -1 -1 -2 -2 -3 -3 -3 -4 -4 -5 -6 -7 -8 -8 -8 -8 -8
3 2 2 2 2 1 1 2 1 1 1 0 0 0 0 0 0 0 0 0 0 -0 -0 -1 -1 -1 -2 -2 -3 -3 -4 -4 -5 -5 -5 -5 -6 -7 -8 -8 -8 -8 -8
2 2 2 1 1 1 1 1 1 0 0 0 0 0 0 0 0 0 -0 -0 -0 -0 -1 -1 -1 -2 -2 -3 -3 -4 -5 -6 -6 -6 -6 -6 -7 -8 -8 -8 -7 -8 -8
2 1 1 1 0 0 0 1 0 0 0 0 0 0 0 -0 -0 -0 -0 -0 -1 -1 -1 -2 -2 -3 -3 -4 -4 -5 -5 -6 -6 -7 -7 -8 -8 -8 -7 -7 -7 -8 -8
1 1 0 0 0 0 0 1 1 0 0 0 0 -0 -0 -0 -0 -1 -1 -1 -1 -1 -2 -2 -3 -3 -4 -4 -5 -5 -6 -6 -7 -7 -7 -8 -8 -8 -8 -7 -7 -7 -7
1 1 1 1 1 0 0 0 1 1 0 0 0 0 -0 -0 -1 -1 -1 -2 -2 -2 -3 -3 -4 -4 -4 -5 -6 -7 -7 -8 -8 -8 -8 -7 -7 -7 -7 -7 -7 -7 -7
1 1 1 1 1 1 1 1 1 1 1 1 0 -0 -0 -1 -1 -1 -2 -2 -3 -3 -3 -4 -4 -5 -6 -6 -7 -7 -8 -8 -8 -8 -8 -8 -8 -8 -8 -7 -7 -7 -7

GEFSMW_850_meantemp_066.txt.gz
Temperature
16 16 17 17 17 17 17 17 17 17 17 17 17 16 16 16 16 16 16 15 15 15 14 14 13 13 12 12 12 12 12 11 11 11 11 11 11 11 11 10 10 9 9
15 15 16 16 16 17 17 17 17 17 17 17 17 17 17 17 17 16 16 16 15 15 14 14 14 13 12 12 12 12 12 11 11 11 11 11 11 11 11 10 10 9 8
14 15 15 15 16 16 16 16 17 17 17 17 17 16 16 16 16 16 16 16 15 15 15 14 14 14 13 13 12 12 12 12 11 11 11 11 11 11 10 10 10 9 8
13 14 14 15 15 15 16 16 16 16 16 16 16 16 16 16 16 17 16 16 16 15 15 15 14 14 13 13 12 12 12 12 11 11 11 11 11 11 10 10 9 9 8
13 13 14 14 14 15 15 15 16 16 16 16 16 16 16 16 16 16 16 16 16 15 15 15 14 14 13 13 12 12 12 11 11 11 11 10 10 10 10 9 9 8 7
12 13 13 14 14 14 14 15 15 15 15 15 15 15 15 15 15 15 16 16 15 15 15 15 14 14 13 13 13 12 11 11 11 10 10 10 10 10 9 8 8 7 7
11 12 13 13 13 14 14 14 14 15 15 15 15 15 15 15 15 15 15 15 15 15 15 15 14 14 13 13 12 12 11 11 10 10 9 9 9 8 8 7 7 6 6
11 11 12 12 12 13 13 13 13 14 14 14 14 14 14 14 14 14 14 14 15 15 15 15 14 14 13 12 12 11 10 10 9 9 8 8 8 7 7 6 6 5 4
11 11 11 11 11 12 12 12 12 13 13 13 13 13 13 13 13 13 13 13 14 14 14 13 13 13 12 11 11 10 10 9 8 8 7 7 6 6 5 5 4 3 2
10 10 10 10 10 10 11 11 11 11 12 12 12 12 12 12 12 12 12 12 12 13 13 12 12 11 11 10 10 9 8 7 7 6 6 5 5 5 4 4 3 2 1
9 9 9 9 9 9 9 10 10 10 10 11 11 11 11 11 11 11 11 11 11 11 11 11 10 10 10 9 8 7 7 6 5 5 4 4 3 3 3 2 2 1 0
9 8 8 8 8 8 8 9 9 9 9 9 10 10 10 10 10 10 10 10 10 10 10 9 9 9 8 8 7 6 5 5 4 4 3 2 2 2 2 1 1 0 -0
8 8 8 8 7 7 7 8 8 8 8 8 8 9 9 9 9 9 9 9 9 9 8 8 8 7 7 6 5 4 4 3 3 3 2 2 1 1 1 0 -0 -1 -1
8 7 7 7 6 6 6 7 7 7 7 7 7 7 8 8 8 8 8 8 8 7 7 7 6 6 5 4 4 3 3 2 2 2 1 1 1 0 -0 -0 -1 -1 -2
7 6 6 6 6 6 6 6 6 6 6 6 6 6 6 6 6 6 6 6 6 6 5 5 4 4 3 3 3 2 2 2 1 1 1 0 0 -0 -1 -2 -2 -3 -3
6 6 5 5 5 5 5 5 5 5 5 5 5 5 5 5 5 5 5 4 4 4 4 3 3 2 2 2 2 2 1 1 1 0 0 -0 -1 -1 -2 -2 -3 -4 -5
6 5 5 5 5 4 4 4 4 4 4 4 4 4 4 4 4 4 3 3 3 2 2 2 2 1 1 1 1 1 1 0 0 -0 -1 -1 -2 -2 -3 -3 -4 -4 -5
5 5 4 4 4 4 3 3 3 3 3 3 3 3 3 3 3 2 2 2 1 1 1 1 1 1 0 0 0 0 -0 -0 -1 -1 -1 -2 -2 -3 -4 -4 -5 -5 -5
5 4 4 4 3 3 3 3 3 2 2 2 2 2 2 2 2 1 1 1 1 0 0 0 0 0 -0 -1 -1 -1 -1 -1 -2 -2 -3 -3 -3 -4 -5 -6 -6 -6 -6
4 4 3 3 3 2 2 2 2 2 2 1 1 1 1 1 1 1 1 0 0 -0 -0 -0 -0 -1 -1 -1 -1 -1 -2 -2 -2 -3 -3 -4 -4 -5 -6 -7 -7 -7 -7
4 3 3 2 2 2 2 1 1 1 1 1 0 0 0 0 0 0 0 0 0 -0 -0 -1 -1 -1 -2 -2 -2 -2 -3 -3 -3 -4 -4 -5 -5 -6 -7 -7 -7 -7 -8
3 2 2 2 1 1 1 1 1 1 0 0 0 0 0 0 -0 0 -0 -0 -0 -1 -1 -1 -1 -2 -2 -3 -3 -4 -4 -4 -4 -4 -5 -5 -6 -6 -7 -7 -7 -7 -7
3 2 2 1 1 1 1 1 1 0 0 0 0 0 -0 -0 -0 -0 -0 -1 -1 -1 -1 -2 -2 -3 -3 -3 -4 -4 -4 -5 -5 -5 -6 -6 -6 -6 -7 -7 -7 -7 -7
2 2 1 1 1 0 0 0 0 0 0 0 -0 -0 -0 -0 -0 -1 -1 -1 -1 -2 -2 -2 -3 -3 -3 -4 -4 -5 -5 -5 -5 -6 -6 -7 -7 -7 -7 -7 -7 -7 -7
2 2 1 1 1 1 0 0 0 0 0 0 0 -0 -0 -0 -1 -1 -1 -2 -2 -2 -3 -3 -3 -4 -4 -5 -5 -6 -6 -6 -6 -7 -7 -7 -7 -7 -7 -7 -7 -7 -7
2 2 1 1 1 1 1 0 0 0 0 0 0 -0 -0 -1 -1 -1 -2 -2 -2 -3 -3 -3 -4 -4 -5 -5 -6 -6 -6 -7 -7 -7 -7 -7 -7 -7 -7 -7 -7 -7 -7

GEFSMW_850_meantemp_072.txt.gz
Temperature
15 15 15 16 16 16 16 16 16 17 16 16 16 16 17 17 17 17 16 16 15 15 14 14 14 13 13 13 13 12 12 12 12 11 11 11 11 11 11 11 10 10 10
14 14 15 15 16 16 16 16 16 16 16 16 17 17 17 17 17 17 16 16 16 15 15 14 14 14 13 13 12 12 12 12 12 11 10 10 10 11 11 11 11 10 10
13 13 14 14 15 15 16 16 16 16 16 16 16 16 16 16 16 16 17 17 16 16 16 15 14 14 13 13 13 13 12 12 12 11 10 10 11 11 11 11 11 10 10
12 12 12 13 14 15 15 15 16 16 16 16 16 15 15 15 16 16 16 17 16 16 16 15 14 14 13 13 13 13 12 12 11 11 11 11 11 11 11 11 11 10 10
11 11 12 13 13 14 14 15 15 15 15 15 15 15 15 15 15 15 15 16 16 16 15 15 14 13 13 13 13 13 12 12 11 11 11 10 10 10 10 10 10 10 9
10 10 11 12 13 13 14 14 14 14 14 14 14 14 14 15 14 14 15 15 15 15 15 15 14 13 13 13 12 12 12 12 11 11 11 11 10 10 10 9 9 9 9
10 10 10 11 12 12 13 13 13 13 14 14 14 14 14 14 14 14 14 14 14 14 14 14 13 13 12 12 12 11 11 11 11 10 10 10 10 9 9 8 8 8 8
9 10 10 10 11 12 12 12 12 13 13 13 13 13 13 13 13 13 13 13 13 13 13 13 13 12 11 11 11 11 11 11 10 10 10 9 9 8 8 7 7 6 6
9 9 9 10 10 11 11 11 12 12 12 12 12 13 13 12 12 12 12 12 12 12 12 12 12 11 11 11 10 10 10 10 10 9 9 8 8 7 7 6 6 5 4
9 9 9 9 10 10 10 10 11 11 11 11 11 12 12 12 11 11 11 11 11 11 11 11 10 10 10 10 10 10 9 9 9 9 8 7 7 6 6 5 4 4 3
8 8 8 8 9 9 9 9 9 10 10 10 10 10 10 10 10 10 10 10 10 10 10 10 10 9 9 9 9 9 9 8 8 8 7 6 5 5 4 4 3 3 2
8 7 7 7 8 8 8 8 8 8 9 9 9 9 9 9 9 9 9 9 9 9 9 9 9 8 8 8 8 8 8 7 7 6 5 5 4 4 3 3 2 2 1
7 7 6 7 7 7 7 7 7 7 8 8 8 8 8 8 8 8 8 8 8 8 7 8 7 7 7 7 7 7 6 6 5 5 4 3 3 3 2 2 1 0 0
7 6 6 6 6 6 6 6 6 6 7 7 7 7 7 7 7 7 7 7 6 6 6 6 6 6 6 6 6 5 5 4 4 3 3 2 2 1 1 1 0 -0 -1
6 6 5 5 5 5 5 5 6 6 6 6 6 6 6 5 5 5 5 5 5 5 5 5 5 4 4 4 4 4 3 3 2 2 1 1 1 0 -0 -0 -1 -1 -2
6 5 5 5 5 5 5 5 5 5 5 5 5 4 4 4 5 4 4 4 4 4 4 4 3 3 3 2 2 2 1 1 1 1 0 0 -0 -1 -1 -1 -2 -2 -3
5 5 5 4 4 4 4 4 4 4 4 4 4 4 4 4 4 3 3 3 3 3 2 2 2 2 1 1 0 0 0 0 -0 -0 -0 -1 -1 -1 -2 -2 -3 -3 -4
5 5 4 4 4 4 4 4 3 3 4 3 3 3 3 3 2 2 2 2 2 1 1 1 1 0 -0 -0 -0 -1 -1 -1 -1 -1 -1 -2 -2 -2 -3 -3 -3 -4 -4
5 4 4 4 3 3 3 3 3 3 3 3 2 2 2 2 1 1 1 1 1 0 0 -0 -1 -1 -1 -1 -1 -1 -1 -2 -2 -2 -2 -2 -3 -3 -4 -4 -4 -5 -5
5 4 4 3 3 3 3 2 2 2 2 2 2 2 1 1 1 1 0 0 -0 -0 -1 -1 -1 -1 -1 -1 -2 -2 -2 -2 -2 -3 -3 -3 -3 -4 -5 -5 -6 -6 -6
4 4 3 3 2 2 2 2 2 2 2 2 1 1 1 0 0 0 -0 -0 -0 -1 -1 -1 -2 -2 -2 -2 -2 -2 -3 -3 -3 -4 -4 -4 -4 -5 -5 -6 -6 -6 -6
4 3 3 2 2 2 2 2 2 1 1 1 1 1 0 0 -0 -0 -1 -1 -1 -1 -1 -2 -2 -2 -2 -3 -3 -3 -3 -4 -4 -4 -5 -5 -5 -5 -6 -6 -6 -6 -6
3 2 2 2 2 1 1 1 1 1 1 1 1 1 0 -0 -0 -1 -1 -1 -1 -1 -2 -2 -2 -3 -3 -3 -3 -4 -4 -4 -5 -5 -5 -5 -6 -6 -6 -6 -6 -6 -6
3 2 2 2 1 1 1 1 1 1 1 1 1 0 0 -1 -1 -1 -1 -1 -2 -2 -2 -2 -3 -3 -3 -4 -4 -5 -5 -5 -5 -6 -6 -6 -6 -6 -6 -7 -7 -7 -7
3 2 2 2 1 1 1 1 1 1 1 1 1 0 -0 -1 -1 -1 -1 -2 -2 -2 -2 -3 -3 -4 -4 -4 -5 -5 -5 -6 -6 -6 -6 -7 -7 -7 -7 -7 -7 -7 -7
3 2 2 2 1 1 1 1 1 1 1 1 0 -0 -0 -1 -1 -1 -2 -2 -2 -2 -3 -3 -3 -4 -4 -5 -5 -6 -6 -6 -6 -7 -7 -7 -7 -7 -7 -7 -7 -7 -7

GEFSMW_850_meantemp_078.txt.gz
Temperature
18 18 17 17 16 16 16 16 16 15 15 15 15 15 15 15 15 15 15 15 15 15 15 15 14 14 14 14 13 13 13 12 12 11 11 11 11 11 12 11 11 11 11
17 17 17 16 16 16 16 16 16 16 15 15 15 15 15 15 16 16 16 15 15 15 15 14 14 14 13 13 13 13 12 12 12 11 11 11 11 11 11 11 11 11 11
17 16 16 15 15 15 15 15 15 15 15 15 15 15 15 15 15 16 16 16 15 15 14 14 14 13 13 13 13 12 12 12 12 11 11 11 11 12 11 11 11 11 10
15 15 15 14 14 14 15 15 15 15 15 15 15 15 15 15 15 15 16 16 15 15 14 14 13 13 13 12 12 12 12 12 11 11 11 11 11 11 11 11 11 10 10
14 14 14 13 13 13 14 14 14 14 15 15 14 14 14 14 14 14 14 14 14 14 14 13 13 13 12 12 12 12 11 11 11 11 11 11 10 10 11 11 10 10 10
13 12 12 12 12 12 13 13 13 14 14 14 14 14 14 14 14 13 13 13 13 13 13 13 12 12 12 12 11 11 11 11 11 11 11 11 10 10 10 10 10 10 9
12 12 11 11 11 11 12 12 13 13 13 13 13 13 13 13 13 13 13 13 12 12 12 12 12 12 11 11 11 11 11 11 11 10 10 10 10 10 10 9 9 9 8
12 11 11 10 10 11 11 11 12 12 12 12 12 12 12 12 12 12 12 12 12 12 12 11 11 11 11 11 11 10 10 10 10 10 10 10 9 9 9 9 8 8 7
11 11 10 10 10 10 10 11 11 11 11 11 11 12 12 11 11 11 11 11 11 11 11 11 11 10 10 10 10 10 10 10 10 10 9 9 9 9 8 8 7 7 6
11 10 9 9 9 9 10 10 10 10 10 10 11 11 10 10 10 10 10 10 10 10 10 10 10 10 9 9 9 9 9 9 9 9 9 8 8 8 7 7 7 6 5
10 10 9 9 9 9 9 9 9 9 9 9 9 9 9 9 9 9 9 9 9 9 9 9 9 9 9 8 8 8 8 8 8 8 8 8 7 7 6 6 5 5 4
10 9 9 8 8 8 8 8 8 8 8 8 8 8 8 8 8 8 8 8 8 8 8 8 8 8 8 7 7 7 7 7 7 7 7 6 6 6 5 5 4 4 3
9 9 8 8 7 7 7 7 7 8 7 7 7 7 7 7 7 7 7 7 7 7 7 7 7 7 7 7 7 6 6 6 6 6 5 5 5 4 4 3 3 2 2
9 8 8 7 7 7 7 7 7 7 7 6 6 7 7 7 6 6 6 6 6 6 6 6 6 6 6 6 5 5 5 5 5 4 4 4 3 3 2 2 1 1 1
9 8 7 7 6 6 6 6 6 6 6 6 6 6 6 5 5 5 5 5 5 5 5 5 5 5 5 5 4 4 4 4 3 3 2 2 2 1 1 1 0 -0 -0
9 8 7 6 6 5 5 5 5 5 5 5 5 5 5 5 5 5 4 4 4 4 4 4 4 4 4 3 3 3 3 2 2 2 1 1 0 -0 -0 -1 -1 -1 -2
8 7 6 6 5 5 5 4 4 4 4 4 4 4 4 4 4 4 4 4 3 3 3 3 3 3 2 2 2 2 2 1 1 0 0 -0 -1 -1 -1 -2 -2 -2 -3
8 7 6 5 5 4 4 4 3 3 3 4 3 3 3 3 3 3 3 3 3 2 2 2 2 1 1 1 1 1 0 0 -0 -1 -1 -1 -1 -2 -2 -2 -2 -3 -3
7 6 6 5 4 4 4 3 3 3 3 3 3 3 3 3 2 2 2 2 1 1 1 1 0 0 0 0 -0 -0 -1 -1 -1 -2 -2 -2 -2 -2 -3 -3 -3 -4 -4
6 6 5 4 4 3 3 3 3 3 3 2 2 2 2 2 2 1 1 1 1 0 0 0 -0 -0 -1 -1 -1 -1 -1 -2 -2 -2 -2 -3 -3 -3 -4 -4 -4 -5 -5
5 5 4 4 3 3 2 2 2 2 2 2 2 1 1 1 1 1 0 0 -0 -0 -0 -0 -1 -1 -1 -1 -1 -2 -2 -2 -3 -3 -3 -4 -4 -4 -4 -5 -5 -5 -6
5 4 4 3 3 3 2 2 2 2 2 1 1 1 1 1 0 0 -0 -0 -0 -0 -1 -1 -1 -2 -2 -2 -2 -2 -3 -3 -3 -4 -4 -4 -4 -5 -5 -5 -5 -6 -6
4 4 3 3 3 2 2 2 2 1 1 1 1 1 0 0 -0 -0 -0 -0 -1 -1 -1 -1 -2 -2 -2 -2 -3 -3 -3 -4 -4 -4 -4 -5 -5 -5 -5 -5 -6 -6 -6
4 3 3 3 2 2 2 1 1 1 1 1 1 0 0 0 -0 -0 -1 -1 -1 -1 -1 -1 -2 -2 -3 -3 -3 -3 -3 -4 -4 -4 -5 -5 -5 -5 -6 -6 -6 -6 -6
4 3 3 3 2 2 2 1 1 1 1 1 0 0 0 0 -0 -0 -1 -1 -1 -1 -1 -2 -2 -2 -3 -3 -4 -4 -4 -4 -5 -5 -5 -5 -5 -6 -6 -6 -6 -6 -7
3 3 3 2 2 2 1 1 1 1 1 1 0 0 0 0 0 -0 -0 -1 -1 -1 -2 -2 -2 -3 -3 -3 -4 -4 -4 -5 -5 -5 -6 -6 -6 -6 -6 -7 -7 -7 -7

GEFSMW_850_meantemp_084.txt.gz
Temperature
17 17 17 17 17 17 16 16 16 16 15 15 15 15 15 15 14 14 14 14 14 14 14 14 14 14 14 14 14 13 13 13 12 12 11 11 11 12 12 12 12 12 12
17 17 17 17 17 17 16 16 16 16 15 15 15 15 15 15 15 14 14 14 14 14 14 14 14 14 13 13 13 13 12 12 12 11 11 11 11 12 12 12 12 12 12
16 16 16 16 16 16 16 16 16 15 15 15 15 14 14 14 14 14 14 14 14 14 14 14 14 13 13 13 13 12 12 12 12 11 11 11 11 12 12 12 12 12 12
16 16 16 16 16 16 16 15 15 15 15 15 15 14 14 14 14 15 14 14 14 14 14 13 13 13 13 13 12 12 12 12 11 11 11 11 11 11 11 11 12 11 11
15 15 15 15 15 15 15 15 15 15 15 15 14 14 14 14 14 14 14 14 14 14 13 13 13 13 13 12 12 12 12 11 11 11 11 11 10 10 10 10 11 11 11
14 14 14 14 14 14 14 14 14 14 14 14 14 14 14 14 14 14 14 14 14 13 13 13 13 12 12 12 12 12 11 11 11 11 11 11 10 10 10 10 10 10 10
13 13 13 13 13 13 13 13 13 13 13 13 13 13 13 13 13 13 13 13 13 13 13 12 12 12 12 12 11 11 11 11 11 11 10 10 10 10 10 10 9 9 9
12 12 12 12 12 12 12 12 12 12 13 12 12 12 12 12 12 12 12 12 12 12 12 12 11 11 11 11 11 11 10 10 10 10 10 10 10 9 9 9 9 8 8
11 11 11 11 11 11 11 11 11 11 12 12 12 12 12 12 12 12 11 11 11 11 11 11 11 11 10 10 10 10 10 10 10 9 9 9 9 9 9 8 8 7 7
10 11 10 10 10 10 10 10 10 11 11 11 11 11 11 11 11 11 11 10 10 10 10 10 10 10 10 9 9 9 9 9 9 8 8 8 8 8 8 8 7 7 6
10 10 10 10 9 9 9 9 10 10 10 10 10 10 10 10 10 10 10 10 10 9 9 9 9 9 9 9 8 8 8 8 8 8 8 7 7 7 7 7 6 6 6
10 10 9 9 9 9 9 9 9 9 9 9 9 9 9 9 9 9 9 9 9 8 8 8 8 8 8 8 8 7 7 7 7 7 7 6 6 6 6 6 5 5 5
9 9 9 9 8 8 8 8 8 8 8 8 8 8 8 8 8 8 8 8 8 7 7 7 7 7 7 7 7 7 6 6 6 6 6 6 5 5 5 5 4 4 4
9 9 9 8 8 8 7 7 7 7 7 7 7 7 7 7 7 7 7 7 7 6 6 6 6 6 6 6 6 6 5 5 5 5 5 5 4 4 4 3 3 3 2
9 9 8 8 8 7 7 7 7 6 6 6 6 6 6 6 6 6 6 6 5 5 5 5 5 5 5 5 5 5 5 4 4 4 4 3 3 3 2 2 2 1 1
9 9 8 8 7 7 7 6 6 6 5 5 5 5 5 5 5 5 5 5 5 4 4 4 4 4 4 4 4 4 4 3 3 3 3 2 2 2 1 1 0 0 -0
9 9 8 8 7 7 6 6 5 5 4 4 4 4 4 4 4 4 4 4 4 4 4 4 4 4 3 3 3 3 3 2 2 2 2 1 1 0 0 -0 -0 -1 -1
9 9 8 7 7 6 5 5 4 4 4 4 4 4 4 3 3 3 3 3 3 3 3 3 3 2 2 2 2 2 2 1 1 1 1 0 -0 -1 -1 -1 -1 -2 -2
9 8 8 7 6 6 5 4 4 3 3 3 3 3 3 3 3 3 2 2 2 2 2 2 1 1 1 1 1 1 0 0 0 -0 -1 -1 -1 -2 -2 -2 -2 -2 -3
8 8 7 6 6 5 4 4 3 3 3 3 3 3 2 2 2 2 2 1 1 1 1 1 0 0 0 -0 -0 -0 -0 -0 -1 -1 -1 -2 -2 -3 -3 -3 -3 -3 -4
7 7 6 6 5 4 4 3 3 3 2 2 2 2 2 2 1 1 1 1 0 0 0 -0 -0 -0 -1 -1 -1 -1 -1 -1 -2 -2 -2 -3 -3 -3 -4 -4 -4 -4 -4
6 6 5 5 4 4 3 3 3 2 2 2 2 1 1 1 1 1 0 0 -0 -0 -0 -0 -1 -1 -1 -1 -1 -2 -2 -2 -2 -2 -3 -3 -4 -4 -4 -4 -4 -5 -5
5 5 4 4 4 3 3 3 2 2 2 1 1 1 1 1 1 0 0 -0 -0 -1 -1 -1 -1 -1 -1 -2 -2 -2 -2 -3 -3 -3 -3 -4 -4 -4 -5 -5 -5 -5 -5
5 4 4 4 3 3 3 2 2 2 1 1 1 1 1 0 0 -0 -0 -0 -0 -1 -1 -1 -1 -1 -2 -2 -2 -2 -3 -3 -3 -3 -4 -4 -4 -5 -5 -5 -6 -6 -6
4 4 4 4 3 3 2 2 2 1 1 1 1 0 0 0 -0 -0 -0 -0 -1 -1 -1 -1 -1 -2 -2 -2 -3 -3 -3 -3 -4 -4 -4 -4 -5 -5 -5 -5 -6 -6 -6
4 4 3 3 3 2 2 2 1 1 1 1 1 0 0 -0 -0 -0 -0 -1 -1 -1 -1 -1 -2 -2 -2 -2 -3 -3 -3 -4 -4 -4 -4 -5 -5 -5 -5 -6 -6 -6 -6